Flag for Belgium Weather past 2 weeks in Mons, Belgium

52 °F

Light rain. Overcast.

Feels Like: 46 °F
Forecast: 52 / 56 °F
Wind: 21 mph from Southwest

Location: Chievres

Current Time: Nov 30, 2015 at 8:40:29 PM

Latest Report: Nov 30, 2015 at 7:55 PM

Visibility: 3 mi

Pressure: 30.04 "Hg

Humidity: 88%

Dew point: 48 °F

Location of MonsLocation

Historic Weather in Mons — Graph


Mons temperature yesterday

Maximum temperature yesterday: 54 °F (at 8:25 PM)
Minimum temperature yesterday: 46 °F (at 12:25 AM)
Average temperature yesterday: 50 °F

Past Weeks' High & Low Weather Summary

High61 °F (Nov 17, 7:55 PM)100% (Nov 16, 12:55 PM)30.30 "Hg (Nov 16, 12:55 PM)
Low27 °F (Nov 23, 6:25 AM)66% (Nov 25, 2:55 PM)29.42 "Hg (Nov 21, 7:55 AM)
Average45 °F89%29.91 "Hg
* Reported Nov 15 7:25 PM — Nov 30 7:25 PM, Mons, Weather by CustomWeather, © 2015

Note: Actual official high and low records may vary slightly from our data, if they occured in-between our weather recording intervals... More about our weather records


Mons weather history for previous 24 hours

Time TempWeatherWind HumidityBarometerVisibility
7:25 PM
Mon, Nov 30
52 °FDrizzle. Overcast.22 mph82%30.01 "HgN/A
6:55 PM54 °FDrizzle. Overcast.24 mph77%30.01 "HgN/A
6:25 PM52 °FLight rain. Overcast.25 mph82%30.01 "HgN/A
5:55 PM52 °FLight rain. Overcast.29 mph82%30.01 "HgN/A
5:25 PM52 °FOvercast.23 mph82%30.01 "HgN/A
4:55 PM52 °FOvercast.22 mph82%30.04 "HgN/A
4:25 PM52 °FMostly cloudy.21 mph88%30.04 "HgN/A
3:55 PM52 °FLight rain. Overcast.20 mph88%30.04 "HgN/A
3:25 PM52 °FOvercast.24 mph88%30.01 "HgN/A
2:55 PM52 °FOvercast.24 mph82%30.04 "HgN/A
2:25 PM52 °FOvercast.22 mph82%30.07 "HgN/A
1:55 PM52 °FPartly sunny.24 mph88%30.07 "HgN/A
1:25 PM52 °FMostly cloudy.21 mph88%30.09 "HgN/A
12:55 PM52 °FOvercast.24 mph88%30.09 "HgN/A
12:25 PM50 °FRain. Low clouds.22 mph94%30.09 "Hg2 mi
12:03 PM50 °FLight rain. Overcast.21 mph94%30.09 "Hg2 mi
11:25 AM50 °FRain. Overcast.24 mph94%30.09 "Hg2 mi
10:55 AM52 °FOvercast.22 mph88%30.12 "HgN/A
10:25 AM52 °FPartly sunny.23 mph88%30.12 "HgN/A
9:55 AM50 °FLight rain. Low clouds.21 mph100%30.12 "Hg2 mi
9:25 AM50 °FRain. Overcast.14 mph100%30.12 "Hg2 mi
8:55 AM50 °FLight rain. Low clouds.12 mph94%30.12 "Hg5 mi
8:25 AM48 °FLight rain. Overcast.9 mph100%30.12 "Hg6 mi
7:55 AM48 °FLight rain. Overcast.7 mph94%30.12 "HgN/A
7:25 AM50 °FDrizzle. Overcast.9 mph88%30.12 "HgN/A
6:25 AM50 °FLight rain. Mostly cloudy.9 mph88%30.12 "HgN/A
5:55 AM50 °FPartly cloudy.10 mph82%30.12 "HgN/A
5:25 AM50 °FPassing clouds.13 mph82%30.09 "HgN/A
4:55 AM50 °FPassing clouds.12 mph88%30.09 "HgN/A
4:25 AM50 °FPartly cloudy.10 mph88%30.09 "HgN/A
3:55 AM50 °FOvercast.14 mph88%30.09 "HgN/A
3:25 AM48 °FLight rain. Overcast.18 mph100%30.07 "Hg4 mi
2:55 AM52 °FOvercast.13 mph94%30.07 "HgN/A
1:55 AM52 °FMostly cloudy.15 mph94%30.04 "HgN/A
1:25 AM52 °FPassing clouds.16 mph94%30.04 "HgN/A
12:55 AM52 °FPassing clouds.16 mph94%30.01 "HgN/A
11:55 PM
Sun, Nov 29
52 °FLight rain. Overcast.20 mph88%30.01 "HgN/A
11:25 PM52 °FRain. Overcast.22 mph88%30.01 "Hg6 mi
10:55 PM52 °FLight rain. Overcast.23 mph88%29.98 "HgN/A
10:25 PM52 °FLight rain. Overcast.22 mph88%29.98 "Hg4 mi
10:03 PM52 °FLight rain. Overcast.24 mph88%29.95 "Hg3 mi
9:55 PM52 °FLight rain. Overcast.23 mph88%29.95 "Hg4 mi
9:25 PM52 °FLight rain. Overcast.24 mph88%29.95 "Hg6 mi
8:55 PM52 °FLight rain. Overcast.22 mph82%29.95 "Hg4 mi
8:25 PM54 °FOvercast.26 mph77%29.95 "HgN/A
Weather by CustomWeather, © 2015

See weather overviewHow to use our weather pages